Wind_Speed
19 16 16 19 13 10 11 6 5 2 3 7 4 5 12 17 16 17 17 16 17 18 17 21 22 22 20 19 20 20 17 16 13 13 12 11 11 11 10 9 4 4 4 4
20 20 20 18 14 9 6 11 10 2 4 7 12 10 9 19 17 17 18 17 17 18 19 20 23 23 22 21 21 21 20 17 18 15 13 10 10 12 10 7 6 5 6 5
22 21 19 22 11 13 15 16 13 8 11 16 14 14 11 15 18 17 17 18 18 18 20 20 22 25 24 24 24 23 22 21 20 15 13 8 8 8 9 12 9 9 8 7
22 18 25 12 15 16 19 15 8 6 12 13 6 11 13 7 16 17 18 18 19 19 19 22 21 26 27 27 26 25 25 24 22 19 17 16 13 11 11 11 7 9 7 7
16 19 22 14 19 18 19 18 7 12 14 17 18 9 8 14 9 16 16 18 20 21 20 21 23 28 27 28 28 27 26 26 23 23 19 19 16 14 12 11 10 8 7 7
18 3 8 16 20 22 21 20 12 16 15 15 18 17 14 8 17 12 19 17 18 21 23 20 26 27 27 27 26 27 27 25 25 25 23 22 17 12 15 11 11 10 9 7
16 14 14 14 14 14 13 18 15 16 15 14 19 17 16 3 6 5 8 10 18 20 23 21 22 22 27 29 28 26 27 26 27 27 26 23 19 15 11 13 12 12 11 11
12 18 23 18 16 18 17 17 15 20 16 16 20 19 6 9 13 4 5 8 2 18 22 25 23 24 28 29 29 27 28 27 28 28 27 24 20 18 15 14 11 11 10 10
15 15 10 4 10 14 19 19 17 20 20 16 18 14 8 4 8 13 10 2 7 12 19 26 25 28 27 28 29 29 29 27 28 26 25 24 22 20 17 16 13 10 10 10
13 10 14 11 12 17 17 17 14 12 20 19 16 18 11 10 3 5 8 6 7 9 16 21 23 27 30 30 29 29 30 30 30 27 25 25 24 21 17 14 14 12 10 9
10 12 12 2 12 14 12 15 18 19 13 13 14 14 17 17 9 10 11 7 2 11 15 18 22 31 30 32 31 30 31 31 30 28 26 24 23 22 19 17 16 14 13 13
10 10 12 14 11 9 12 16 16 13 19 14 15 16 7 4 3 5 5 7 7 7 14 17 21 28 31 28 29 32 32 33 31 29 26 25 24 23 20 18 17 17 16 15
12 9 13 11 16 15 9 16 17 20 19 20 15 13 11 8 8 9 7 7 5 6 10 14 19 21 23 28 28 32 31 31 30 30 28 27 26 23 20 20 20 19 17 15
4 13 17 15 19 5 21 11 12 17 12 16 18 19 15 16 15 11 9 8 7 8 10 12 16 18 24 28 30 28 32 32 32 31 29 27 25 23 22 20 17 16 15 15
13 15 15 18 21 22 20 19 17 17 17 18 19 21 17 15 8 11 6 9 9 9 11 14 16 19 21 26 27 29 31 31 32 30 28 26 24 23 21 19 19 15 14 13
12 14 15 17 18 20 24 25 22 21 21 19 17 16 19 13 4 6 8 10 11 12 11 13 16 18 20 26 25 27 27 30 29 28 26 25 25 24 23 21 18 16 14 14
15 13 14 17 17 15 17 21 22 22 23 24 15 13 3 7 11 9 8 6 8 9 11 12 16 17 22 25 26 26 26 29 27 27 26 28 28 26 25 21 19 17 15 14
17 14 12 13 14 17 18 16 16 18 16 18 15 9 11 8 11 12 8 8 11 10 9 11 12 16 23 24 27 26 28 28 28 28 30 32 31 29 27 24 23 19 17 16
16 13 11 12 14 17 17 14 11 13 17 15 20 6 8 11 15 2 8 10 11 12 9 9 13 15 19 23 27 27 28 30 30 30 32 33 31 30 28 26 23 22 20 17
10 12 11 12 15 16 13 8 7 9 13 9 15 10 9 13 11 10 13 12 13 13 11 9 8 14 16 19 26 27 29 31 29 32 33 33 30 29 28 29 28 25 22 19
9 9 12 12 12 15 11 7 4 11 4 9 9 8 9 8 7 9 12 12 13 15 14 12 7 10 15 19 23 26 26 26 27 32 32 30 32 32 30 27 24 24 26 25
12 12 12 12 16 19 7 7 9 7 6 7 7 9 9 9 10 12 12 11 10 11 15 14 5 4 7 12 20 21 20 24 32 33 30 31 30 28 26 25 24 24 23 20
12 12 12 16 13 2 4 4 7 9 9 8 5 10 8 14 11 10 12 11 9 9 9 10 11 0 4 10 14 19 20 32 32 29 29 29 28 24 24 25 24 20 18 21
16 14 14 17 17 19 17 13 12 9 12 8 9 11 10 10 12 20 10 13 9 8 7 4 3 3 6 8 10 23 31 31 28 25 24 23 23 21 23 23 23 21 21 19
13 17 18 18 17 17 19 17 15 16 4 5 10 12 13 13 12 13 13 12 6 4 6 3 4 7 8 9 16 26 28 28 26 25 23 24 22 24 23 21 22 20 19 22
15 19 15 16 16 17 16 17 19 20 17 10 13 16 13 12 13 14 12 10 14 5 4 5 5 7 8 12 15 24 26 25 23 22 24 23 23 23 22 21 20 19 19 22
Wind_Direction
213 236 241 251 253 149 268 355 311 81 56 288 296 274 182 178 200 193 196 194 191 196 188 187 192 186 187 186 186 187 199 185 185 197 195 204 208 201 201 193 175 195 191 193
241 223 250 251 273 294 256 268 267 202 155 279 279 281 184 172 200 203 197 196 198 190 177 183 189 185 190 192 186 189 195 188 195 200 200 222 200 190 193 193 192 204 201 195
232 239 226 253 264 254 256 264 278 315 317 270 258 275 176 173 179 200 200 198 200 196 183 186 189 191 188 187 190 191 192 189 194 204 186 184 179 163 173 196 211 202 204 219
247 242 261 263 255 265 263 263 337 302 270 284 302 302 224 152 180 190 201 201 199 199 200 178 190 193 193 189 194 193 191 190 194 197 189 194 194 189 194 195 197 200 219 214
236 238 250 243 260 254 263 288 316 295 281 279 271 255 135 195 185 188 199 204 202 193 202 190 189 194 196 190 193 197 193 191 192 194 196 191 214 184 186 190 188 206 211 207
260 343 278 265 257 251 265 271 266 257 259 260 265 274 271 127 193 208 174 189 207 202 195 207 188 193 194 189 189 194 191 193 193 193 198 196 197 200 170 179 182 188 199 200
222 227 225 252 265 252 247 249 251 245 236 245 251 246 255 189 185 323 94 157 185 204 189 200 191 190 191 189 184 188 185 191 194 194 197 197 198 199 192 185 197 192 191 195
252 220 212 212 236 261 227 244 253 254 258 262 252 246 222 250 273 327 264 156 240 189 198 190 199 194 187 192 184 187 179 187 194 195 195 193 192 194 202 200 194 198 192 169
278 252 240 261 273 233 250 257 264 274 273 272 279 283 264 259 284 267 257 20 163 199 201 189 197 193 184 193 186 185 177 184 188 193 192 191 192 201 203 187 198 200 179 150
286 297 291 261 216 250 266 278 263 230 260 271 273 267 264 252 149 289 270 74 141 202 198 194 192 196 183 191 187 187 181 183 184 188 191 192 195 199 196 190 194 194 173 158
304 284 273 193 253 254 208 237 251 273 281 267 254 255 260 243 194 248 278 110 192 189 192 199 192 193 191 190 187 189 187 189 187 187 188 190 194 196 195 190 186 180 163 164
347 308 296 286 284 232 289 280 231 236 247 256 281 287 252 329 279 190 353 315 305 215 196 197 191 190 192 186 186 189 190 192 190 187 184 187 190 191 189 181 179 171 171 170
344 289 299 269 241 204 228 250 263 276 280 272 271 267 259 295 284 246 279 312 329 260 216 200 192 187 185 184 187 191 188 191 189 184 185 186 186 182 186 185 176 175 174 169
291 267 275 286 312 204 300 300 285 278 277 276 270 274 271 281 275 276 313 21 327 287 240 221 197 191 184 191 189 189 189 190 189 184 185 180 181 182 181 176 173 176 172 165
246 275 287 291 295 298 289 287 283 278 280 283 296 299 303 302 347 16 344 306 317 288 255 214 211 190 187 193 187 190 190 187 188 180 180 172 173 169 167 170 164 172 171 166
275 284 282 269 272 273 280 280 278 272 274 275 279 280 282 295 345 318 322 322 312 297 270 234 209 198 193 195 191 189 188 181 180 171 174 163 157 162 160 162 162 166 170 162
280 283 280 275 288 290 275 257 257 269 274 274 268 278 360 313 319 325 312 335 314 315 291 263 219 213 195 196 190 189 187 176 168 167 161 155 156 159 158 161 163 167 168 168
260 257 272 277 276 269 272 298 282 294 291 302 298 310 309 334 294 287 85 347 319 311 291 273 252 209 197 201 185 183 184 173 167 167 157 160 162 159 159 163 165 166 170 171
243 251 262 266 260 271 274 269 286 273 270 286 289 284 325 327 312 137 26 354 332 316 300 265 252 225 205 198 177 175 177 174 169 166 163 164 163 160 166 166 165 165 166 173
270 235 246 256 272 278 305 3 26 327 278 293 6 17 358 324 295 45 348 357 349 340 330 315 240 209 188 198 174 174 174 173 173 168 162 167 167 163 163 166 167 167 167 170
227 235 252 245 256 268 282 308 25 266 332 4 357 353 344 343 336 328 349 349 2 343 354 344 294 210 181 193 173 179 179 181 171 157 162 165 168 168 170 166 168 168 165 161
275 263 247 247 255 262 11 316 250 343 334 3 335 339 328 323 328 352 344 347 8 359 351 349 307 34 148 171 154 179 187 164 155 161 168 168 171 168 168 161 163 167 163 157
255 253 272 282 282 332 315 284 294 319 315 311 351 312 320 315 330 339 337 338 32 3 1 350 342 64 180 181 184 179 156 151 162 170 173 174 168 163 164 159 163 169 172 163
270 258 262 269 264 283 301 304 310 309 279 331 314 313 319 310 327 311 335 341 11 354 343 5 326 245 213 205 184 160 159 165 169 167 174 163 161 157 163 166 168 172 178 182
282 298 281 269 276 278 271 276 289 287 267 289 289 302 307 303 313 312 298 327 347 334 317 293 265 263 215 176 168 165 169 170 174 167 169 166 165 163 170 178 179 186 190 193
264 267 267 272 283 289 292 303 308 303 295 270 294 295 299 306 297 305 305 308 305 285 262 259 253 239 206 184 178 177 177 176 165 160 165 169 164 174 180 181 177 201 196 205
Height
721 735 739 719 705 733 721 723 734 723 717 727 726 723 718 724 730 734 736 739 742 745 749 755 763 767 772 777 784 790 793 798 802 805 809 809 810 811 812 814 816 818 819 820
729 738 715 704 703 711 723 732 732 719 715 723 720 719 705 711 722 722 729 734 735 738 743 752 759 763 768 775 780 786 791 795 801 802 805 804 806 807 810 814 816 817 818 819
734 718 707 711 714 727 726 730 727 731 719 710 713 718 709 699 707 714 716 721 726 731 735 745 753 758 764 771 776 782 788 792 797 799 803 805 806 808 811 812 814 815 817 818
722 707 712 720 727 722 735 708 715 730 736 745 707 747 706 716 712 712 712 714 719 723 727 734 744 751 756 764 772 777 783 788 793 797 800 802 803 806 809 812 814 814 817 818
728 723 721 731 726 714 729 706 719 728 736 733 723 733 715 701 719 709 708 706 708 714 720 723 733 741 748 756 764 771 778 784 788 793 796 799 800 802 807 810 813 815 816 817
720 701 713 719 710 710 709 719 722 727 733 758 728 726 720 724 726 696 687 695 699 704 714 718 727 735 742 749 757 765 773 780 785 789 792 795 797 798 801 805 809 811 814 816
727 722 716 713 726 713 719 733 758 763 756 755 708 720 708 684 687 679 682 683 688 694 704 716 719 726 735 741 750 759 767 774 779 783 788 792 794 798 801 805 805 807 809 812
733 741 716 706 722 728 720 725 746 777 761 739 697 726 704 675 669 670 669 676 679 685 691 705 713 720 729 736 744 753 761 768 774 779 783 788 792 796 799 802 802 803 806 808
738 735 699 705 706 712 725 733 705 728 717 731 713 691 681 671 678 676 672 672 679 682 686 694 706 713 723 732 740 748 756 764 770 775 781 785 789 792 794 797 801 804 805 808
730 751 715 707 706 708 716 703 731 725 766 767 729 716 709 689 686 680 676 674 676 679 683 687 698 708 717 728 736 745 752 759 764 770 776 780 785 789 791 795 799 802 804 808
725 732 730 713 721 725 719 728 719 715 715 741 745 724 670 673 673 681 674 672 674 678 680 682 690 702 712 721 730 740 748 754 759 764 770 775 781 785 789 793 796 800 804 806
726 736 741 723 694 690 699 707 707 735 743 725 725 717 661 668 668 669 677 676 674 672 675 676 683 694 704 715 723 732 740 746 752 759 765 771 776 781 786 790 794 797 801 803
738 742 750 733 706 694 715 709 706 703 703 722 731 717 662 665 668 667 674 676 677 679 676 676 679 687 698 709 717 724 732 740 747 753 760 765 771 778 784 789 792 796 799 802
751 744 747 754 733 738 742 716 710 711 725 719 712 704 686 679 678 674 673 674 679 678 679 679 680 686 694 704 711 719 726 733 741 747 754 760 767 775 782 788 793 798 801 802
743 752 741 735 726 722 723 721 717 721 715 726 711 705 689 678 676 678 680 681 681 681 678 678 680 684 695 703 707 715 722 728 735 742 751 758 766 774 780 787 790 797 801 802
734 753 745 750 733 728 731 719 711 709 706 703 703 706 681 673 672 681 683 684 687 684 677 675 678 681 691 699 706 713 718 724 731 740 750 758 766 773 779 786 791 796 801 802
747 750 753 757 731 731 741 719 710 706 696 692 708 692 677 686 683 683 685 689 691 687 681 673 673 678 686 695 705 712 717 724 732 740 748 756 763 770 776 783 789 794 798 802
743 747 747 753 742 768 719 691 691 697 690 683 681 681 681 686 682 677 681 688 689 685 682 679 670 672 679 691 699 709 716 722 730 738 745 751 757 763 771 776 782 787 794 798
724 736 748 755 747 730 717 702 700 703 703 682 683 680 683 686 685 685 686 687 686 681 676 674 671 671 676 685 694 705 712 720 727 732 739 747 754 759 766 772 778 783 787 794
718 718 739 742 755 756 715 693 692 697 725 689 689 690 700 699 701 697 690 689 688 681 674 671 670 673 677 684 691 702 710 716 721 728 736 744 751 758 764 768 772 777 784 790
735 739 743 737 743 727 699 692 692 737 726 702 702 703 706 709 705 696 693 690 694 691 681 679 675 674 679 686 692 702 710 715 722 728 737 743 747 752 760 767 774 779 777 779
738 739 733 727 737 743 694 698 721 706 701 702 707 707 708 703 698 695 695 692 698 698 694 687 681 681 685 690 696 705 710 715 722 729 735 739 746 751 760 765 771 775 777 783
736 726 733 725 716 702 699 701 697 700 706 707 712 710 708 705 699 698 695 691 696 699 700 699 697 697 699 701 702 707 711 716 724 730 735 739 744 749 757 765 772 779 783 778
717 710 722 724 714 707 702 698 697 700 704 704 709 708 705 707 707 703 695 693 695 701 701 703 703 703 703 704 705 708 713 718 723 729 737 743 748 756 760 765 771 773 776 779
724 718 720 717 713 711 708 704 703 700 700 708 710 709 707 706 705 707 695 695 693 701 703 703 704 704 705 706 707 709 713 717 721 728 734 739 747 752 760 763 765 768 772 774
723 723 726 720 711 712 710 708 710 711 707 706 709 709 706 706 705 700 699 692 696 697 701 703 702 704 705 706 708 710 712 715 720 727 731 736 743 749 754 759 763 766 769 772